Tacoma, WA

9:30 PM PDT on August 24, 2016 (GMT -0700)
McChord Air Force Base

Weather History for KTCM - December, 2013

Change the Weather History Date:

Sunday, December 8, 2013

  Actual Average Record
Temperature  
Mean Temperature 20 °F -  
Max Temperature 31 °F 46 °F 61 °F (1957)
Min Temperature 10 °F 33 °F 5 °F (1972)
Degree Days  
Heating Degree Days 44    
Moisture  
Dew Point 12 °F    
Average Humidity 75    
Maximum Humidity 90    
Minimum Humidity 43    
Precipitation  
Precipitation 0.00 in - - ()
Sea Level Pressure  
Sea Level Pressure 30.53 in    
Wind  
Wind Speed 2 mph (SSW)    
Max Wind Speed 5 mph    
Max Gust Speed -    
Visibility 10 miles    
Events      
Averages and records for this station are not official NWS values.
T = Trace of Precipitation, MM = Missing Value Source: NWS Daily Summary

Daily Weather History Graph

Daily Weather History Graph

Search for Another Location

Airport or City:

Trip Planner

Search our weather history database for the weather conditions in past years. The results will help you decide how hot, cold, wet, or windy it might be!

Date:

Astronomy

Dec. 08, 2013 Rise Set
Actual Time 7:43 AM PST 4:20 PM PST
Civil Twilight 7:08 AM PST 4:55 PM PST
Nautical Twilight 6:29 AM PST 5:34 PM PST
Astronomical Twilight 5:52 AM PST 6:11 PM PST
Moon 11:48 AM PST (12/8) 11:37 PM PST (12/8)
Length of Visible Light 9h 47m
Length of Day
8h 36m
Waxing Crescent, 41% of the Moon is Illuminated
Dec 8
Waxing Crescent
Dec 9
First Quarter
Dec 17
Full
Dec 25
Last Quarter
Jan 1
New

Hourly Weather History & Observations

Time (PST) Temp. Windchill Dew Point Humidity Pressure Visibility Wind Dir Wind Speed Gust Speed Precip Events Conditions
12:58 AM 10.0 °F - 7.0 °F 87% 30.46 in 10.0 mi South 2.3 mph - N/A   Clear
1:58 AM 10.4 °F 2.2 °F 7.9 °F 90% 30.47 in 10.0 mi South 4.6 mph - N/A   Clear
2:58 AM 11.3 °F - 7.7 °F 85% 30.48 in 10.0 mi Calm Calm - N/A   Clear
3:58 AM 11.5 °F - 9.0 °F 90% 30.48 in 10.0 mi Calm Calm - N/A   Mostly Cloudy
4:58 AM 14.4 °F - 11.1 °F 87% 30.48 in 10.0 mi Calm Calm - N/A   Overcast
5:58 AM 16.2 °F - 12.0 °F 84% 30.50 in 10.0 mi Calm Calm - N/A   Overcast
6:58 AM 16.9 °F - 11.8 °F 81% 30.51 in 10.0 mi Calm Calm - N/A   Overcast
7:58 AM 17.6 °F - 13.6 °F 84% 30.52 in 10.0 mi South 2.3 mph - N/A   Overcast
8:58 AM 18.9 °F - 14.5 °F 83% 30.53 in 10.0 mi West 1.2 mph - N/A   Overcast
9:58 AM 20.7 °F - 14.4 °F 77% 30.54 in 10.0 mi WSW 1.2 mph - N/A   Overcast
10:58 AM 24.4 °F - 14.9 °F 67% 30.54 in 10.0 mi Variable 1.2 mph - N/A   Overcast
11:58 AM 26.8 °F - 12.0 °F 54% 30.53 in 10.0 mi Calm Calm - N/A   Overcast
12:58 PM 29.7 °F 26.1 °F 9.7 °F 43% 30.53 in 10.0 mi NW 3.5 mph - N/A   Clear
1:58 PM 30.2 °F 26.7 °F 10.8 °F 44% 30.53 in 10.0 mi North 3.5 mph - N/A   Clear
2:58 PM 31.3 °F 27.9 °F 13.1 °F 47% 30.54 in 10.0 mi NW 3.5 mph - N/A   Clear
3:58 PM 29.8 °F - 13.5 °F 51% 30.54 in 10.0 mi NE 2.3 mph - N/A   Clear
4:58 PM 27.0 °F - 15.1 °F 61% 30.55 in 10.0 mi Calm Calm - N/A   Clear
5:58 PM 20.5 °F 15.6 °F 13.3 °F 74% 30.55 in 10.0 mi South 3.5 mph - N/A   Clear
6:58 PM 18.7 °F - 12.6 °F 77% 30.55 in 10.0 mi South 2.3 mph - N/A   Clear
7:58 PM 18.0 °F - 13.8 °F 84% 30.56 in 10.0 mi SE 1.2 mph - N/A   Clear
8:58 PM 15.4 °F - 11.7 °F 85% 30.58 in 10.0 mi Calm Calm - N/A   Clear
9:58 PM 14.9 °F 9.2 °F 11.3 °F 86% 30.59 in 10.0 mi South 3.5 mph - N/A   Clear
10:58 PM 14.4 °F - 11.5 °F 88% 30.61 in 10.0 mi SSE 2.3 mph - N/A   Clear
11:58 PM 13.3 °F 5.6 °F 10.2 °F 88% 30.60 in 10.0 mi South 4.6 mph - N/A   Clear